Location: Mountain View
(37.3861°N, 122.0839°W)
Time: 04:41:23
(UTC-07:00)

OTV 5 (USA 277) - Visible Passes

Search period start: 18 June 2018 00:00
Search period end: 28 June 2018 00:00
Orbit: 313 x 320 km, 54.5° (Epoch: 16 June)

Date Brightness Start Highest point End Pass type
(mag) Time Alt. Az. Time Alt. Az. Time Alt. Az.
18 Jun ? 03:33:29 10° N 03:35:13 15° NE 03:36:57 10° ENE visible
18 Jun ? 05:07:09 10° WNW 05:09:37 31° SW 05:12:05 10° SSE visible
18 Jun ? 21:25:42 10° W 21:28:00 25° NW 21:30:19 10° NNE visible
19 Jun ? 03:47:18 10° NNW 03:49:50 36° NE 03:52:23 10° ESE visible
19 Jun ? 21:41:40 10° NW 21:42:41 12° NNW 21:43:43 10° N visible
20 Jun ? 02:29:01 10° NNE 02:29:43 11° NNE 02:30:24 10° NE visible
20 Jun ? 04:01:37 10° NW 04:02:20 16° NW 04:02:20 16° NW visible
27 Jun ? 23:41:01 10° N 23:41:29 12° N 23:41:29 12° N visible
